Back to catalog

STARLINK-35158

AliveCommunicationsVLEO
NORAD 66381·PAYLOAD·🇺🇸 United States

Launched Nov 8, 2025 from Cape Canaveral Space Force Station

Loading…

Next Passes (next 24 hours)

TLE

FreshSource: CelesTrak SupGP

Epoch: Sep 14, 2026, 21:21 UTC

1 66381C 25257B   26257.89006944  .00040656  00000+0  12007-2 0  2576
2 66381  53.1579  55.7265 0001151  83.8487   1.0818 15.34383435    10

Track STARLINK-35158 in real time with AllMySat

Download on the App Store